DW1256 Weather Reports


Display with metric or nautical units.
time (UTC)temp
F
wind
direction
speed
MPH
gust
MPH
rain 1hr
in
rain 24hr
in
rain mn
in
humidity
%
barometer
mb
20230205235428 40 0 6.0 13.0 0.00 0.00 0.00 59 1015.7
20230205234426 40 0 6.0 12.0 0.00 0.00 0.00 58 1015.5
20230205233921 40 0 6.0 11.0 0.00 0.00 0.00 57 1015.3
20230205232922 40 0 7.0 14.0 0.00 0.00 0.00 56 1015.1
20230205232424 41 0 7.0 14.0 0.00 0.00 0.00 56 1015.0
20230205231422 42 0 7.0 12.0 0.00 0.00 0.00 55 1014.8
20230205230925 42 0 7.0 12.0 0.00 0.00 0.00 55 1014.6
20230205230417 42 0 6.0 12.0 0.00 0.00 0.00 55 1014.6
20230205225418 43 292 7.0 12.0 0.00 0.00 0.00 54 1014.5
20230205224918 43 291 8.0 14.0 0.00 0.00 0.00 53 1014.4
20230205222414 44 306 8.0 15.0 0.00 0.00 0.00 51 1014.0
20230205221910 45 273 8.0 16.0 0.00 0.00 0.00 51 1013.8
20230205220909 45 317 9.0 18.0 0.00 0.00 0.00 50 1013.6
20230205220412 46 273 9.0 16.0 0.00 0.00 0.00 50 1013.5
20230205215907 46 294 9.0 16.0 0.00 0.00 0.00 50 1013.4
20230205215408 46 296 9.0 20.0 0.00 0.00 0.00 49 1013.2
20230205214907 47 279 10.0 20.0 0.00 0.00 0.00 48 1013.1
20230205214407 47 285 10.0 19.0 0.00 0.00 0.00 48 1013.0
20230205213908 47 288 9.0 18.0 0.00 0.00 0.00 48 1012.9
20230205213409 47 342 10.0 18.0 0.00 0.00 0.00 48 1012.7
20230205212909 47 271 10.0 20.0 0.00 0.00 0.00 47 1012.7
20230205212405 48 304 10.0 20.0 0.00 0.00 0.00 47 1012.6
20230205211902 48 298 10.0 16.0 0.00 0.00 0.00 46 1012.5
20230205211403 48 337 10.0 19.0 0.00 0.00 0.00 44 1012.4
20230205210902 49 308 11.0 22.0 0.00 0.00 0.00 44 1012.4
20230205210401 49 317 11.0 22.0 0.00 0.00 0.00 44 1012.2
20230205205906 49 283 10.0 20.0 0.00 0.00 0.00 43 1012.1
20230205205400 49 296 11.0 20.0 0.00 0.00 0.00 43 1012.1
20230205204358 49 292 11.0 20.0 0.00 0.00 0.00 42 1011.8
20230205203857 49 269 10.0 20.0 0.00 0.00 0.00 41 1011.8
20230205203357 50 0 10.0 19.0 0.00 0.00 0.00 41 1011.7
20230205202352 50 271 10.0 19.0 0.00 0.00 0.00 41 1011.5
20230205201850 50 331 11.0 26.0 0.00 0.00 0.00 41 1011.4
20230205201353 50 280 10.0 26.0 0.00 0.00 0.00 40 1011.3
20230205200850 50 295 9.0 17.0 0.00 0.00 0.00 40 1011.3
20230205200350 50 296 9.0 17.0 0.00 0.00 0.00 40 1011.1
20230205195345 50 0 8.0 16.0 0.00 0.00 0.00 40 1011.1
20230205194844 50 0 8.0 15.0 0.00 0.00 0.00 40 1011.0
20230205194345 50 0 9.0 17.0 0.00 0.00 0.00 40 1010.9
20230205193845 50 234 9.0 17.0 0.00 0.00 0.00 41 1011.0
20230205193344 50 265 9.0 16.0 0.00 0.00 0.00 40 1011.0
20230205192847 50 261 9.0 17.0 0.00 0.00 0.00 41 1011.0
20230205191839 50 270 8.0 17.0 0.00 0.00 0.00 41 1010.9
20230205191339 50 0 8.0 18.0 0.00 0.00 0.00 42 1010.9
20230205190839 49 0 9.0 18.0 0.00 0.00 0.00 42 1010.8
20230205190338 49 0 7.0 15.0 0.00 0.00 0.00 42 1010.8
20230205185838 49 257 6.0 13.0 0.00 0.00 0.00 43 1010.7
20230205185332 49 263 7.0 14.0 0.00 0.00 0.00 43 1010.9
20230205184833 48 0 7.0 14.0 0.00 0.00 0.00 43 1010.9
20230205183832 48 0 7.0 16.0 0.00 0.00 0.00 43 1011.1
20230205183332 48 0 8.0 16.0 0.00 0.00 0.00 43 1011.2
20230205182327 49 286 8.0 16.0 0.00 0.00 0.00 43 1011.1
20230205181826 49 0 9.0 18.0 0.00 0.00 0.00 44 1011.2
20230205181326 48 299 9.0 18.0 0.00 0.00 0.00 43 1011.2
20230205180827 48 267 8.0 16.0 0.00 0.00 0.00 43 1011.2
20230205175829 48 271 6.0 14.0 0.00 0.00 0.00 44 1011.3
20230205175321 48 0 6.0 14.0 0.00 0.00 0.00 45 1011.2
20230205174320 47 271 7.0 14.0 0.00 0.00 0.00 46 1011.3
20230205173820 47 263 7.0 14.0 0.00 0.00 0.00 47 1011.3
20230205173320 47 0 6.0 13.0 0.00 0.00 0.00 48 1011.3
20230205172820 47 226 6.0 11.0 0.00 0.00 0.00 48 1011.4
20230205171815 46 0 6.0 15.0 0.00 0.00 0.00 49 1011.4
20230205171317 46 0 6.0 15.0 0.00 0.00 0.00 49 1011.4
20230205170815 45 286 6.0 14.0 0.00 0.00 0.00 50 1011.3
20230205170315 45 219 6.0 13.0 0.00 0.00 0.00 51 1011.2
20230205165814 45 0 5.0 13.0 0.00 0.00 0.00 51 1011.4
20230205165310 45 0 6.0 15.0 0.00 0.00 0.00 52 1011.5
20230205164810 44 235 6.0 15.0 0.00 0.00 0.00 52 1011.5
20230205164308 44 0 6.0 13.0 0.00 0.00 0.00 53 1011.6
20230205163808 44 229 6.0 13.0 0.00 0.00 0.00 53 1011.7
20230205163308 44 269 6.0 14.0 0.00 0.00 0.00 53 1011.7
20230205162811 43 278 7.0 15.0 0.00 0.00 0.00 53 1011.7
20230205162305 43 0 7.0 15.0 0.00 0.00 0.00 54 1011.8
20230205161301 43 0 7.0 16.0 0.00 0.00 0.00 55 1011.9
20230205160302 42 0 7.0 15.0 0.00 0.00 0.00 55 1012.0
20230205155803 42 0 7.0 15.0 0.00 0.00 0.00 56 1011.8
20230205155258 42 245 6.0 17.0 0.00 0.00 0.00 56 1011.8
20230205154755 42 0 7.0 17.0 0.00 0.00 0.00 56 1011.6
20230205154259 42 0 7.0 15.0 0.00 0.00 0.00 56 1011.6
20230205153756 41 218 6.0 15.0 0.00 0.00 0.00 57 1011.5
20230205153257 41 0 5.0 15.0 0.00 0.00 0.00 58 1011.5
20230205152756 41 0 5.0 15.0 0.00 0.00 0.00 58 1011.6
20230205152252 41 0 5.0 10.0 0.00 0.00 0.00 58 1011.6
20230205151752 40 0 5.0 10.0 0.00 0.00 0.00 59 1011.6
20230205151251 40 0 5.0 14.0 0.00 0.00 0.00 59 1011.5
20230205150752 40 0 4.0 14.0 0.00 0.00 0.00 59 1011.6
20230205150250 40 0 4.0 11.0 0.00 0.00 0.00 60 1011.6
20230205145753 39 0 4.0 11.0 0.00 0.00 0.00 60 1011.6
20230205145246 39 0 5.0 12.0 0.00 0.00 0.00 61 1011.6
20230205144745 38 0 5.0 12.0 0.00 0.00 0.00 61 1011.6
20230205144245 38 0 4.0 10.0 0.00 0.00 0.00 61 1011.6
20230205143746 38 0 4.0 10.0 0.00 0.00 0.00 62 1011.5
20230205143245 37 0 4.0 10.0 0.00 0.00 0.00 62 1011.5
20230205142745 37 0 4.0 9.0 0.00 0.00 0.00 63 1011.5
20230205141738 36 0 4.0 9.0 0.00 0.00 0.00 63 1011.6
20230205140738 36 0 3.0 9.0 0.00 0.00 0.00 64 1011.6
20230205140238 35 232 4.0 10.0 0.00 0.00 0.00 64 1011.7
20230205135739 35 0 4.0 10.0 0.00 0.00 0.00 65 1011.6
20230205135234 35 0 3.0 10.0 0.00 0.00 0.00 65 1011.5
20230205134733 35 0 3.0 8.0 0.00 0.00 0.00 65 1011.5
20230205134231 34 0 3.0 8.0 0.00 0.00 0.00 65 1011.6
20230205133732 34 0 3.0 9.0 0.00 0.00 0.00 65 1011.5
20230205133232 34 0 3.0 9.0 0.00 0.00 0.00 65 1011.6
20230205132736 34 0 3.0 6.0 0.00 0.00 0.00 64 1011.5
20230205131728 34 0 3.0 7.0 0.00 0.00 0.00 63 1011.5
20230205131226 34 0 3.0 8.0 0.00 0.00 0.00 63 1011.4
20230205130728 34 0 3.0 8.0 0.00 0.00 0.00 63 1011.5
20230205130227 34 0 3.0 6.0 0.00 0.00 0.00 62 1011.5
20230205125728 34 0 3.0 6.0 0.00 0.00 0.00 62 1011.5
20230205125223 35 0 3.0 6.0 0.00 0.00 0.00 62 1011.5
20230205124223 35 0 3.0 8.0 0.00 0.00 0.00 61 1011.7
20230205123720 36 0 3.0 6.0 0.00 0.00 0.00 61 1011.6
20230205123220 36 0 3.0 8.0 0.00 0.00 0.00 61 1011.7
20230205122721 36 0 3.0 8.0 0.00 0.00 0.00 61 1011.6
20230205122216 36 0 3.0 9.0 0.00 0.00 0.00 61 1011.6
20230205121717 36 0 3.0 9.0 0.00 0.00 0.00 61 1011.6
20230205121215 36 0 4.0 9.0 0.00 0.00 0.00 61 1011.7
20230205120714 36 0 4.0 9.0 0.00 0.00 0.00 61 1011.7
20230205120214 36 0 3.0 8.0 0.00 0.00 0.00 60 1011.7
20230205115713 36 0 4.0 9.0 0.00 0.00 0.00 60 1011.7
20230205114704 36 0 4.0 9.0 0.00 0.00 0.00 60 1011.7
20230205114205 36 0 4.0 8.0 0.00 0.00 0.00 60 1011.7
20230205113206 36 0 4.0 10.0 0.00 0.00 0.00 60 1011.8
20230205112708 36 0 4.0 10.0 0.00 0.00 0.00 60 1011.8
20230205112206 36 0 4.0 11.0 0.00 0.00 0.00 59 1011.8
20230205111704 36 0 4.0 11.0 0.00 0.00 0.00 59 1011.8
20230205111201 36 0 4.0 12.0 0.00 0.00 0.00 59 1011.8
20230205110703 36 0 4.0 12.0 0.00 0.00 0.00 59 1011.9
20230205110200 36 0 4.0 9.0 0.00 0.00 0.00 59 1012.0
20230205105700 36 0 4.0 9.0 0.00 0.00 0.00 59 1012.1
20230205105202 36 0 4.0 8.0 0.00 0.00 0.00 59 1012.1
20230205104652 36 0 4.0 9.0 0.00 0.00 0.00 59 1012.2
20230205103654 36 215 4.0 10.0 0.00 0.00 0.00 58 1012.2
20230205103154 36 250 4.0 9.0 0.00 0.00 0.00 58 1012.1
20230205102656 36 0 4.0 9.0 0.00 0.00 0.00 58 1012.3
20230205101651 36 0 4.0 9.0 0.00 0.00 0.00 58 1012.2
20230205101149 36 205 4.0 8.0 0.00 0.00 0.00 58 1012.2
20230205100150 36 167 5.0 11.0 0.00 0.00 0.00 58 1012.2
20230205095650 36 0 4.0 11.0 0.00 0.00 0.00 58 1012.2
20230205095148 36 0 4.0 9.0 0.00 0.00 0.00 58 1012.2
20230205094642 36 203 4.0 8.0 0.00 0.00 0.00 58 1012.2
20230205094142 36 0 4.0 9.0 0.00 0.00 0.00 58 1012.2
20230205093142 36 0 4.0 11.0 0.00 0.00 0.00 58 1012.4
20230205092643 35 202 4.0 9.0 0.00 0.00 0.00 58 1012.5
20230205092142 35 0 3.0 9.0 0.00 0.00 0.00 58 1012.6
20230205091636 35 192 4.0 9.0 0.00 0.00 0.00 58 1012.5
20230205091136 35 0 4.0 9.0 0.00 0.00 0.00 58 1012.5
20230205090136 35 204 4.0 11.0 0.00 0.00 0.00 57 1012.5
20230205085637 35 0 4.0 11.0 0.00 0.00 0.00 57 1012.6
20230205085139 35 0 4.0 9.0 0.00 0.00 0.00 57 1012.6
20230205084132 35 0 4.0 13.0 0.00 0.00 0.00 56 1012.8
20230205083134 35 0 4.0 9.0 0.00 0.00 0.00 56 1012.7
20230205082635 35 211 4.0 10.0 0.00 0.00 0.00 56 1012.8
20230205082134 35 205 4.0 10.0 0.00 0.00 0.00 55 1012.8
20230205081634 35 0 4.0 9.0 0.00 0.00 0.00 55 1012.9
20230205081128 35 0 4.0 10.0 0.00 0.00 0.00 55 1013.1
20230205080627 35 203 4.0 10.0 0.00 0.00 0.00 55 1013.2
20230205080131 35 274 4.0 9.0 0.00 0.00 0.00 55 1013.3
20230205075629 35 0 4.0 10.0 0.00 0.00 0.00 55 1013.3
20230205075128 35 0 4.0 10.0 0.00 0.00 0.00 54 1013.4
20230205074628 35 0 4.0 10.0 0.00 0.00 0.00 54 1013.4
20230205074122 35 0 4.0 9.0 0.00 0.00 0.00 54 1013.5
20230205073621 35 0 4.0 10.0 0.00 0.00 0.00 54 1013.4
20230205073122 35 170 4.0 10.0 0.00 0.00 0.00 53 1013.4
20230205072623 35 0 4.0 8.0 0.00 0.00 0.00 53 1013.5
20230205072122 35 0 4.0 8.0 0.00 0.00 0.00 53 1013.4
20230205071624 35 0 4.0 10.0 0.00 0.00 0.00 53 1013.5
20230205071119 35 165 4.0 10.0 0.00 0.00 0.00 53 1013.5
20230205070619 35 194 4.0 11.0 0.00 0.00 0.00 52 1013.5
20230205070118 36 0 4.0 11.0 0.00 0.00 0.00 52 1013.6
20230205065620 36 215 4.0 10.0 0.00 0.00 0.00 52 1013.6
20230205065119 36 180 4.0 9.0 0.00 0.00 0.00 51 1013.7
20230205064621 36 0 4.0 9.0 0.00 0.00 0.00 51 1013.8
20230205063615 36 219 4.0 11.0 0.00 0.00 0.00 51 1013.9
20230205063114 36 0 5.0 12.0 0.00 0.00 0.00 51 1013.9
20230205062617 36 202 5.0 12.0 0.00 0.00 0.00 50 1013.9
20230205061616 36 0 4.0 12.0 0.00 0.00 0.00 50 1014.0
20230205061116 36 227 4.0 14.0 0.00 0.00 0.00 50 1014.2
20230205060110 36 211 4.0 13.0 0.00 0.00 0.00 50 1014.2
20230205055609 36 253 4.0 13.0 0.00 0.00 0.00 50 1014.3
20230205055106 36 221 4.0 12.0 0.00 0.00 0.00 50 1014.3
20230205054606 36 0 4.0 12.0 0.00 0.00 0.00 50 1014.2
20230205053100 36 0 3.0 10.0 0.00 0.00 0.00 49 1014.5
20230205052600 37 181 4.0 10.0 0.00 0.00 0.00 49 1014.5
20230205052102 37 200 4.0 10.0 0.00 0.00 0.00 49 1014.5
20230205051600 37 219 4.0 8.0 0.00 0.00 0.00 49 1014.5
20230205051100 37 0 4.0 9.0 0.00 0.00 0.00 49 1014.5
20230205050601 37 124 4.0 9.0 0.00 0.00 0.00 49 1014.7
20230205050059 37 0 5.0 9.0 0.00 0.00 0.00 48 1014.8
20230205045101 37 221 5.0 10.0 0.00 0.00 0.00 48 1014.8
20230205044555 37 263 5.0 10.0 0.00 0.00 0.00 48 1014.8
20230205044049 37 240 4.0 10.0 0.00 0.00 0.00 47 1014.8
20230205043543 38 224 5.0 11.0 0.00 0.00 0.00 47 1014.7
20230205043037 38 0 5.0 11.0 0.00 0.00 0.00 47 1014.6
20230205042533 38 0 5.0 16.0 0.00 0.00 0.00 47 1014.6
20230205042031 38 224 5.0 16.0 0.00 0.00 0.00 47 1014.5
20230205041533 38 0 5.0 14.0 0.00 0.00 0.00 47 1014.5
20230205041031 38 223 5.0 11.0 0.00 0.00 0.00 47 1014.6
20230205040532 38 208 6.0 12.0 0.00 0.00 0.00 47 1014.6
20230205040033 38 0 5.0 12.0 0.00 0.00 0.00 47 1014.6
20230205035533 38 0 4.0 10.0 0.00 0.00 0.00 47 1014.6
20230205035031 38 0 5.0 18.0 0.00 0.00 0.00 46 1014.5
20230205034531 38 242 5.0 18.0 0.00 0.00 0.00 46 1014.5
20230205034030 38 197 5.0 12.0 0.00 0.00 0.00 46 1014.5
20230205033529 38 206 5.0 12.0 0.00 0.00 0.00 46 1014.6
20230205032533 38 195 5.0 13.0 0.00 0.00 0.00 46 1014.6
20230205031519 38 0 5.0 12.0 0.00 0.00 0.00 47 1014.6
20230205031021 38 0 5.0 12.0 0.00 0.00 0.00 48 1014.6
20230205030022 38 211 5.0 13.0 0.00 0.00 0.00 49 1014.7
20230205025522 38 0 5.0 13.0 0.00 0.00 0.00 49 1014.7
20230205025021 38 0 5.0 11.0 0.00 0.00 0.00 50 1014.6
20230205024019 38 222 4.0 10.0 0.00 0.00 0.00 50 1014.5
20230205023521 38 0 5.0 14.0 0.00 0.00 0.00 51 1014.5
20230205022521 38 159 5.0 13.0 0.00 0.00 0.00 51 1014.5
20230205021517 38 213 5.0 12.0 0.00 0.00 0.00 51 1014.5
20230205021017 38 170 5.0 15.0 0.00 0.00 0.00 51 1014.3
20230205020516 38 0 5.0 15.0 0.00 0.00 0.00 51 1014.4
20230205020017 38 199 5.0 13.0 0.00 0.00 0.00 51 1014.3
20230205015517 38 236 5.0 18.0 0.00 0.00 0.00 51 1014.3
20230205015011 38 222 5.0 18.0 0.00 0.00 0.00 52 1014.3
20230205014513 38 210 5.0 18.0 0.00 0.00 0.00 52 1014.4
20230205014012 39 227 6.0 18.0 0.00 0.00 0.00 52 1014.3
20230205013512 39 168 6.0 13.0 0.00 0.00 0.00 52 1014.5
20230205013013 39 0 6.0 16.0 0.00 0.00 0.00 52 1014.4
20230205012513 39 0 6.0 16.0 0.00 0.00 0.00 52 1014.4
20230205012007 39 0 6.0 13.0 0.00 0.00 0.00 52 1014.5
20230205010507 39 156 6.0 14.0 0.00 0.00 0.00 52 1014.6
20230205005509 39 0 6.0 16.0 0.00 0.00 0.00 51 1014.8
20230205004505 39 0 7.0 15.0 0.00 0.00 0.00 51 1015.0
20230205002507 39 0 5.0 13.0 0.00 0.00 0.00 49 1015.0
20230205002004 40 0 4.0 12.0 0.00 0.00 0.00 49 1015.0
20230205001502 40 207 4.0 15.0 0.00 0.00 0.00 49 1015.1
20230205001002 40 0 5.0 15.0 0.00 0.00 0.00 49 1015.0
20230204235959 40 214 5.0 12.0 0.00 0.00 0.00 49 1015.1